ONEWEB-0054, 45158

Orbit data source: Space-Track

ONEWEB-0054, 45158 is a payload satellite owned by One Web (UK) in LEO that was launched on Thu, 06 Feb 2020 UTC via a SOYUZ-2-1B launch vehicle from the Tyuratam Missile And Space Complex (TTMTR). Payload-class satellites include a variety of spacecraft equipped with specific instruments for various scientific and technological missions. These include communications satellites like Starlink; space stations such as the ISS; scientific satellites like the Hubble; Earth observation satellites from companies like Planet Labs, Umbra, and HawkEye 360; GPS; miniature CubeSats for education and research; and military/defense satellites.

Loading next visibility...
Identifier
45158, 2020-008AD
Orbit
LEO
Country
Flag of UKUK
Related business
Manufacturer
One Web
Mission
Operational Commercial Communications
Bus & Motor
ARROW, Unknown motor
Mass
148 kg wet, ~140 kg dry
Launch date (UTC)
2020-02-06 (6 years ago)
Launch vehicle
SOYUZ-2-1B
Launch site
Tyuratam Missile And Space Complex (TTMTR)
Object type
Payload
Rocket body
Debris
Shape & HBR
Trap Box + 2 Pan, 2.5 m
Radar Cross Section
2.957 m², Large (>1 m²)

Expand to show TLE details & history
Last TLE update: 16 hours ago

TLE from 16 hours ago
0 ONEWEB-0054
1 45158U 20008AD  25257.58485606 -.00000106  00000-0 -33985-3 0  9996
2 45158  87.8742  91.2255 0001726  87.3380 272.7944 13.10376244271938
Epoch: 2025-09-14T14:02Z
TLE epoch observation values (Epoch: 2025-09-14T14:02:11.563Z)
Latitude
-0.00012°
Longitude
-113.12444°
Altitude
1,224.528 km
Speed
7.242 km/s
True Right ascension
06h 04m 54s
True Declination
0° 00' 00"
Sunlit
Object was in daylight at epoch
Visualization orbit readout
Latitude
Unknown
Longitude
Unknown
Altitude
Unknown
Speed
Unknown
Apparent Right ascension
Unknown
Apparent Declination
Unknown
Sunlit
N/A
Visualization observer readout
Local Sidereal Time
22:34:48
Azimuth
Unknown
Elevation
Unknown
Doppler factor
Unknown
Orbital elements
Apogee altitude
1,220.135 km
Perigee altitude
1,217.513 km
Semi-major axis
7,596.961 km
Eccentricity
0.00017
Inclination
87.8742°
RAAN
91.2255°
Arg. of periapsis
87.338°
True anomaly
272.77464°
Mean anomaly
272.7944°
Eccentric anomaly
272.78452°
Mean motion
3.27781 °/min
Orbital period
109.83 mins
BSTAR
-0.00033985
Loading maneuver chart data...
Computing Atmospheric mass density...
Loading historical data...
Loading historical data...
Loading historical data...
Loading historical data...
Loading historical data...
Loading historical data...
Loading historical data...

Documentation

Showing up to 5 results
|